Regional Weather Roundup
Issued by NWS

Home | Current Version | Previous Version | Graphics & Text | Print | Product List | Glossary On
Versions: 1 2 3 4 5 6 7 8 9 10 11 12 13 14 15 16 17 18 19 20 21 22 23 24 25 26 27 28 29 30 31 32 33 34 35 36 37 38 39 40 41 42 43 44 45 46 47 48 49 50
000
ASUS43 KFSD 260302
RWRSD

WEATHER ROUNDUP FOR SOUTH DAKOTA
NATIONAL WEATHER SERVICE SIOUX FALLS SD
1000 PM CDT THU AUG 25 2016

NOTE: "FAIR" INDICATES FEW OR NO CLOUDS BELOW 12,000 FEET WITH NO
SIGNIFICANT WEATHER AND/OR OBSTRUCTIONS TO VISIBILITY.


SDZ001>005-009-010-012>017-260400-
NORTHWEST AND NORTH CENTRAL SOUTH DAKOTA

CITY           SKY/WX    TMP DP  RH WIND       PRES   REMARKS
FAITH            N/A     57  45  64 SE10      30.19R
MOBRIDGE       CLEAR     55  47  74 CALM      30.14R
$$

SDZ012>016-024>037-041>051-057-063-072>074-260400-
SOUTHWEST AND SOUTH CENTRAL SOUTH DAKOTA

CITY           SKY/WX    TMP DP  RH WIND       PRES   REMARKS
RAPID CTY ARPT PTCLDY    52  45  77 CALM      30.21R
PIERRE         CLEAR     56  47  71 N5        30.17S
CUSTER         CLOUDY    50  45  83 E3        30.28R
ELLSWORTH AFB  CLEAR     61  42  49 S2        30.20R
PHILIP         MOCLDY    56  46  69 E7        30.18S
PINE RIDGE     CLOUDY    57  50  77 NE5       30.22R
WINNER         FAIR      62  47  57 CALM      30.20R
$$

SDZ004>011-016>023-039-040-260400-
NORTHEAST SOUTH DAKOTA

CITY           SKY/WX    TMP DP  RH WIND       PRES   REMARKS
ABERDEEN       PTCLDY    53  49  86 SW5       30.14R
WATERTOWN      CLEAR     58  51  78 CALM      30.15R
BROOKINGS      CLEAR     59  52  77 CALM      30.16R
$$

SDZ017-020-022-023-036>040-048>070-260400-
SOUTHEAST SOUTH DAKOTA

CITY           SKY/WX    TMP DP  RH WIND       PRES   REMARKS
SIOUX FALLS    CLEAR     61  55  81 CALM      30.16R
HURON          CLEAR     56  50  80 CALM      30.16R
CHAMBERLAIN    CLEAR     64  49  58 N8        30.19R
MITCHELL       CLEAR     58  52  80 N6        30.17R
YANKTON        CLEAR     61  52  72 NW6       30.15R
$$

ABBREVIATIONS USED IN REMARKS
   TC - TEMPERATURE IN CELSIUS
  WCI - WIND CHILL INDEX
   HX - HEAT INDEX
  VSB - VISIBILITY





USA.gov is the U.S. government's official web portal to all federal, state and local government web resources and services.